[[{"header":{"parameterUnit":"m.s-1","parameterCategory":1,"la1":30.2991,"la2":30.254,"lo1":-89.0895,"lo2":-89.0444,"dy":0.0017,"dx":0.0017,"nx":28,"ny":28,"refTime":"2023-09-04T03:00:00:Z","depth":0,"parameterNumber":2,"parameterNumberName":"U-component_of_WINDS"},"data":[0,0,0,0,0,0,0,0,0,0,0,0,0,0,0,0,0,0,0,0,0,0,0,0,0,0,0,0,0,0,0,0,0,0,0,0,0,0,0,0,0,0,0,0,0,0,0,0,0,0,0,0,0,0,0,0,0,0,-6.2112,-6.2113,0,-6.2206,-6.2207,-6.2208,-6.2153,-6.215,-6.2147,-6.2145,-6.2233,-6.2238,-6.2242,0,0,0,0,0,0,0,0,0,0,0,0,0,-6.1874,-6.1879,-6.2111,-6.2113,-6.2114,-6.2206,-6.2207,-6.2208,-6.2153,-6.215,-6.2147,-6.2144,-6.2231,-6.2237,-6.2243,0,0,0,0,0,0,0,0,0,0,0,0,0,-6.1974,-6.188,-6.2111,-6.2098,-6.2097,-6.2206,-6.2207,-6.2209,-6.2154,-6.215,-6.2146,-6.2142,-6.223,-6.2237,-6.2244,-6.2368,0,0,-6.2266,-6.2269,0,0,0,0,0,0,0,0,-6.1968,-6.1982,-6.2098,-6.2099,-6.2099,-6.2164,-6.2156,-6.2262,-6.2155,-6.2132,-6.2145,-6.214,-6.2213,-6.2221,-6.2247,-6.2372,-6.2376,-6.2266,-6.2271,-6.2274,-6.2276,0,0,0,0,0,0,0,-6.1961,-6.1978,-6.2148,-6.21,-6.21,-6.2084,-6.2094,-6.2176,-6.2193,-6.2134,-6.213,-6.2143,-6.2212,-6.224,-6.2249,-6.2377,-6.2266,-6.2273,-6.2277,-6.228,-6.2606,-6.261,0,0,0,0,0,0,-6.1957,-6.1973,-6.2145,-6.2151,-6.2023,-6.2091,-6.2102,-6.2147,-6.2192,-6.2196,-6.2146,-6.214,-6.223,-6.224,-6.2252,-6.2398,-6.2274,-6.2281,-6.2285,-6.2602,-6.2607,-6.2611,0,0,0,0,0,0,-6.1952,-6.1973,-6.2142,-6.2061,-6.2081,-6.21,-6.215,-6.2151,-6.2179,-6.2202,-6.2203,-6.2172,-6.2227,-6.2241,-6.2339,-6.24,-6.2284,-6.229,-6.2596,-6.2603,-6.2609,-6.2692,0,0,0,0,0,0,-6.1945,-6.1971,-6.2021,-6.2063,-6.2086,-6.2231,-6.2154,-6.2155,-6.2193,-6.2186,-6.2227,-6.223,-6.2225,-6.2329,-6.2347,-6.2408,-6.2296,-6.2591,-6.2599,-6.2607,-6.2684,-6.2701,-6.2715,0,0,0,0,0,-6.1937,-6.2039,-6.2023,-6.2044,-6.2149,-6.2234,-6.2247,-6.2243,-6.2198,-6.2246,-6.226,-6.2228,-6.2392,-6.2339,-6.2359,-6.2423,-6.2587,-6.2597,-6.2606,-6.2677,-6.2697,-6.2715,0,0,0,0,0,0,-6.2,-6.2044,-6.2027,-6.2147,-6.2188,-6.2225,-6.2285,-6.2265,-6.2317,-6.2307,-6.2297,-6.2306,-6.2408,-6.2426,-6.2367,-6.2545,-6.2482,-6.2496,-6.2529,-6.2548,-6.2564,-6.2555,-6.2302,0,0,0,0,0,-6.2028,-6.2097,-6.2131,-6.2233,-6.2255,-6.2267,-6.2304,-6.2297,-6.2338,-6.2354,-6.2375,-6.2413,-6.2473,-6.2512,-6.2568,-6.2688,-6.2694,-6.2741,-6.2757,-6.2769,-6.278,-6.2842,-6.2862,-6.2643,-6.2643,-6.2643,0,0,-6.2086,-6.2119,-6.2162,-6.2246,-6.2277,-6.2345,-6.2281,-6.2357,-6.2406,-6.2364,-6.2458,-6.2475,-6.2517,-6.2626,-6.2674,-6.2643,-6.2843,-6.2782,-6.2792,-6.2796,-6.2854,-6.2874,-6.2893,-6.265,-6.2649,-6.2648,0,0,-6.2226,-6.226,-6.2347,-6.238,-6.2429,-6.2436,-6.2458,-6.2499,-6.2509,-6.2604,-6.2574,-6.2631,-6.2735,-6.2765,-6.2794,-6.2947,-6.2918,-6.2966,-6.3045,-6.3105,-6.3122,-6.3137,-6.3188,-6.3207,-6.2977,-6.2978,-6.2978,0,-6.2291,-6.2396,-6.2394,-6.2472,-6.2508,-6.2477,-6.2563,-6.2594,-6.2658,-6.2682,-6.2648,-6.2776,-6.2803,-6.2916,-6.2954,-6.298,-6.3,-6.2959,-6.312,-6.3135,-6.3149,-6.3198,-6.3217,-6.2983,-6.2982,-6.2982,-6.2981,0,-6.2471,-6.2544,-6.2608,-6.2673,-6.2717,-6.2799,-6.2806,-6.2851,-6.2841,-6.2851,-6.2946,-6.2977,-6.3038,-6.3066,-6.3056,-6.3178,-6.3157,-6.3122,-6.3058,-6.3176,-6.322,-6.3239,-6.299,-6.2988,-6.2987,-6.2986,0,0,-6.265,-6.2715,-6.2738,-6.2766,-6.2818,-6.2873,-6.2952,-6.3015,-6.3051,-6.3097,-6.316,-6.325,-6.3218,-6.3251,-6.3244,-6.3297,-6.3412,-6.3255,-6.3256,-6.328,-6.3545,-6.3568,-6.359,-6.3395,-6.3399,-6.3402,-6.354,0,-6.279,-6.2932,-6.2933,-6.3062,-6.3127,-6.3099,-6.3168,-6.3206,-6.3218,-6.3273,-6.3285,-6.3348,-6.3303,-6.3322,-6.3374,-6.3387,-6.3464,-6.3378,-6.345,-6.3453,-6.3437,-6.3614,-6.3639,-6.3767,-6.3558,-6.3561,-6.3563,0,-6.2973,-6.3026,-6.3163,-6.3204,-6.3232,-6.3294,-6.335,-6.3405,-6.3446,-6.3451,-6.3489,-6.3474,-6.3552,-6.3489,-6.3593,-6.3534,-6.3564,-6.3576,-6.358,-6.3584,-6.3512,-6.3618,-6.3809,-6.3827,-6.3592,-6.3589,-6.3587,0,-6.3085,-6.3192,-6.3286,-6.3312,-6.3364,-6.3408,-6.3431,-6.3469,-6.3506,-6.3555,-6.3578,-6.3635,-6.3665,-6.3708,-6.3707,-6.3662,-6.3812,-6.375,-6.3815,-6.3815,-6.3844,-6.3841,-6.4039,-6.387,-6.387,-6.387,-6.3869,0,-6.324,-6.3323,-6.3338,-6.3395,-6.3487,-6.3487,-6.3577,-6.3595,-6.363,-6.3688,-6.3668,-6.3722,-6.3721,-6.3775,-6.3776,-6.386,-6.3875,-6.3878,-6.3876,-6.3878,-6.3877,-6.3894,-6.3884,-6.3875,-6.3874,-6.3873,-6.3872,0,-6.3379,-6.3393,-6.3494,-6.3536,-6.3548,-6.3614,-6.3648,-6.3701,-6.3713,-6.3787,-6.3804,-6.3821,-6.3884,-6.389,-6.3963,-6.3963,-6.4064,-6.4055,-6.4051,-6.4048,-6.4111,-6.4104,-6.4323,-6.435,-6.4168,-6.4169,-6.4171,0,-6.3475,-6.3539,-6.3589,-6.3628,-6.3654,-6.3718,-6.3756,-6.3758,-6.3798,-6.385,-6.3897,-6.3959,-6.4008,-6.4111,-6.4127,-6.4182,-6.4171,-6.4245,-6.4179,-6.4178,-6.4168,-6.4163,-6.4167,-6.4256,-6.4258,-6.4259,-6.4261,0,-6.3642,-6.3646,-6.3704,-6.3765,-6.3812,-6.3859,-6.3903,-6.3936,-6.3942,-6.3988,-6.4054,-6.4093,-6.4169,-6.4229,-6.4284,-6.4304,-6.4282,-6.4282,-6.4299,-6.4299,-6.4293,-6.4294,-6.4081,-6.4276,-6.4274,-6.4273,-6.4272,-6.4272,-6.376,-6.3815,-6.3859,-6.3923,-6.3958,-6.3999,-6.4051,-6.407,-6.4126,-6.419,-6.4187,-6.4259,-6.4297,-6.4368,-6.4393,-6.4447,-6.4422,-6.4448,-6.4454,-6.4459,-6.4464,-6.4288,-6.4457,-6.4457,-6.4457,-6.4456,-6.4456,0,-6.3924,-6.3951,-6.4011,-6.4074,-6.4124,-6.4105,-6.4152,-6.4194,-6.4259,-6.4298,-6.4348,-6.4423,-6.4481,-6.4504,-6.456,-6.4599,-6.4591,-6.4614,-6.4609,-6.4613,-6.4485,-6.4463,-6.462,-6.462,-6.462,-6.4619,-6.4619,-6.4619,-6.4014,-6.4105,-6.4114,-6.4221,-6.4247,-6.4319,-6.4348,-6.4385,-6.4416,-6.4501,-6.4551,-6.4567,-6.4598,-6.4657,-6.4709,-6.4713,-6.4733,-6.476,-6.476,-6.4639,-6.4622,-6.4606,-6.4585,-6.4765,-6.4766,-6.4883,-6.4884,-6.4885]},{"header":{"parameterUnit":"m.s-1","parameterCategory":1,"la1":30.2991,"la2":30.254,"lo1":-89.0895,"lo2":-89.0444,"dy":0.0017,"dx":0.0017,"nx":28,"ny":28,"refTime":"2023-09-04T03:00:00:Z","depth":0,"parameterNumber":3,"parameterNumberName":"V-component_of_WINDS"},"data":[0,0,0,0,0,0,0,0,0,0,0,0,0,0,0,0,0,0,0,0,0,0,0,0,0,0,0,0,0,0,0,0,0,0,0,0,0,0,0,0,0,0,0,0,0,0,0,0,0,0,0,0,0,0,0,0,0,0,5.0475,5.0476,0,5.0554,5.0554,5.0555,5.0518,5.0516,5.0514,5.0512,5.0585,5.0589,5.0593,0,0,0,0,0,0,0,0,0,0,0,0,0,5.0286,5.029,5.0475,5.0476,5.0477,5.0553,5.0554,5.0556,5.0518,5.0515,5.0513,5.0511,5.0584,5.0589,5.0593,0,0,0,0,0,0,0,0,0,0,0,0,0,5.0367,5.0291,5.0475,5.0468,5.0468,5.0553,5.0555,5.0556,5.0518,5.0515,5.0512,5.051,5.0583,5.0588,5.0594,5.0689,0,0,5.0611,5.0614,0,0,0,0,0,0,0,0,5.0362,5.0374,5.0468,5.0468,5.0469,5.0523,5.0515,5.06,5.0519,5.0499,5.0512,5.0508,5.0566,5.0573,5.0594,5.0692,5.0695,5.0612,5.0615,5.0618,5.0619,0,0,0,0,0,0,0,5.0357,5.037,5.0506,5.0469,5.047,5.0458,5.0466,5.0531,5.0548,5.0501,5.0498,5.0508,5.0566,5.0589,5.0596,5.0696,5.0612,5.0617,5.062,5.0622,5.0874,5.0877,0,0,0,0,0,0,5.0352,5.0366,5.0503,5.0508,5.0407,5.0464,5.0473,5.0508,5.0548,5.0551,5.0511,5.0506,5.0581,5.0589,5.0598,5.071,5.0618,5.0623,5.0626,5.0871,5.0874,5.0878,0,0,0,0,0,0,5.0348,5.0365,5.05,5.0436,5.0453,5.0471,5.051,5.0511,5.0534,5.0555,5.0557,5.0531,5.0579,5.059,5.0666,5.0712,5.0625,5.0631,5.0867,5.0872,5.0876,5.0935,0,0,0,0,0,0,5.0343,5.0364,5.0401,5.0438,5.0456,5.0569,5.0513,5.0515,5.0545,5.054,5.0575,5.0578,5.0577,5.0658,5.0672,5.0718,5.0635,5.0863,5.0869,5.0875,5.0929,5.0941,5.0952,0,0,0,0,0,5.0337,5.0414,5.0404,5.042,5.0504,5.0572,5.0582,5.0582,5.0549,5.0586,5.0599,5.0577,5.0706,5.0666,5.0682,5.073,5.086,5.0867,5.0874,5.0924,5.0939,5.0952,0,0,0,0,0,0,5.038,5.0418,5.0407,5.0499,5.0533,5.0566,5.0612,5.0598,5.064,5.0633,5.0629,5.0637,5.0715,5.0731,5.0686,5.0823,5.0777,5.0788,5.081,5.0824,5.0835,5.0828,5.064,0,0,0,0,0,5.0401,5.0455,5.0485,5.0563,5.0581,5.0594,5.0623,5.062,5.0654,5.0667,5.0686,5.0718,5.0765,5.0796,5.0841,5.0932,5.0938,5.0973,5.0985,5.0994,5.1002,5.1049,5.1064,5.0902,5.0902,5.0902,0,0,5.0443,5.0471,5.0505,5.0572,5.0598,5.0651,5.0605,5.0664,5.0703,5.0675,5.0748,5.0764,5.0798,5.0882,5.092,5.0897,5.1049,5.1003,5.1011,5.1013,5.1058,5.1073,5.1087,5.0907,5.0906,5.0905,0,0,5.0547,5.0575,5.0642,5.0669,5.071,5.0718,5.0734,5.077,5.0779,5.0853,5.0833,5.0878,5.0961,5.0986,5.1009,5.1124,5.1104,5.1139,5.1197,5.1243,5.1256,5.1267,5.1305,5.1319,5.1148,5.1148,5.1148,0,5.0593,5.0675,5.0678,5.0738,5.0767,5.0748,5.0814,5.0839,5.0891,5.0911,5.0886,5.0989,5.1011,5.1099,5.1127,5.1148,5.1164,5.1133,5.1254,5.1266,5.1276,5.1312,5.1327,5.1152,5.1151,5.1151,5.1151,0,5.0729,5.0786,5.0835,5.0888,5.0923,5.0986,5.0996,5.1031,5.1026,5.1036,5.111,5.1137,5.1186,5.1208,5.1202,5.1295,5.1279,5.1255,5.1208,5.1295,5.1329,5.1343,5.1157,5.1156,5.1155,5.1154,0,0,5.0859,5.0914,5.0932,5.0955,5.0999,5.1042,5.1103,5.1154,5.1182,5.122,5.1269,5.134,5.1317,5.1344,5.1342,5.1383,5.1468,5.1353,5.1353,5.137,5.1569,5.1584,5.1601,5.1457,5.146,5.1462,5.1565,0,5.0964,5.1074,5.1078,5.1177,5.1228,5.1211,5.1264,5.1295,5.1307,5.1351,5.1363,5.1412,5.1381,5.1396,5.1437,5.145,5.1508,5.1443,5.15,5.1502,5.1488,5.1619,5.1635,5.1731,5.1578,5.1581,5.1582,0,5.1099,5.1143,5.1248,5.1283,5.1305,5.1353,5.1399,5.1442,5.1476,5.1482,5.1513,5.1505,5.1565,5.152,5.1601,5.1557,5.1581,5.1591,5.1595,5.1597,5.1544,5.1621,5.1762,5.1775,5.1604,5.1602,5.16,0,5.118,5.1265,5.1338,5.1358,5.1403,5.1437,5.1456,5.1489,5.1518,5.1558,5.1577,5.1623,5.1647,5.1682,5.1685,5.1652,5.1766,5.1721,5.177,5.1769,5.1791,5.1789,5.1934,5.1813,5.1813,5.1813,5.1812,0,5.1294,5.1357,5.1374,5.1419,5.1489,5.1493,5.1562,5.1579,5.1608,5.1653,5.1642,5.1684,5.1688,5.1732,5.1735,5.18,5.1812,5.1816,5.1815,5.1815,5.1814,5.1827,5.1819,5.1816,5.1816,5.1815,5.1814,0,5.1394,5.1408,5.1486,5.1523,5.1533,5.1583,5.1613,5.1654,5.1666,5.1724,5.1738,5.1755,5.1806,5.1814,5.1873,5.1875,5.1952,5.1947,5.1941,5.1939,5.1985,5.1979,5.2141,5.2161,5.203,5.2032,5.2033,0,5.1463,5.1512,5.1555,5.1586,5.1608,5.1658,5.1688,5.1694,5.1726,5.177,5.1805,5.1855,5.1895,5.1976,5.1992,5.2037,5.203,5.2084,5.2036,5.2034,5.2026,5.2022,5.2026,5.2091,5.2093,5.2094,5.2095,0,5.1585,5.159,5.1636,5.1684,5.1722,5.176,5.1796,5.1821,5.1831,5.1868,5.192,5.1952,5.2013,5.2061,5.2106,5.2123,5.211,5.2111,5.2123,5.2121,5.2115,5.2116,5.1962,5.2106,5.2105,5.2104,5.2103,5.2103,5.1669,5.1711,5.1748,5.1799,5.1827,5.1861,5.1902,5.1919,5.1964,5.2015,5.2016,5.2073,5.2105,5.2164,5.2185,5.2228,5.221,5.223,5.2234,5.2238,5.224,5.2112,5.2237,5.2236,5.2236,5.2236,5.2236,0,5.1787,5.181,5.1858,5.1909,5.1949,5.1937,5.1976,5.2009,5.206,5.2093,5.2133,5.2192,5.224,5.2261,5.2307,5.2337,5.2331,5.2348,5.2344,5.2348,5.2255,5.2238,5.2351,5.2351,5.2351,5.2351,5.2351,5.2351,5.1853,5.1923,5.1932,5.2015,5.2037,5.2094,5.2117,5.2147,5.2173,5.2241,5.2281,5.2296,5.2323,5.2371,5.2413,5.2418,5.2433,5.2452,5.2454,5.2366,5.2354,5.2343,5.2327,5.2457,5.2457,5.2542,5.2543,5.2543]}]]